| time (UTC) | temp F | wind direction | speed knots | gust knots | rain 1hr in | rain 24hr in | rain mn in | humidity % | barometer mb |
| 20260507003806 | 59 | 160 | 2.6 | 4.3 | 0.00 | 0.00 | 0.00 | 71 | 1018.6 |
| 20260507003256 | 60 | 260 | 0.0 | 1.7 | 0.00 | 0.00 | 0.00 | 70 | 1018.3 |
| 20260507002752 | 59 | 105 | 0.9 | 3.5 | 0.00 | 0.00 | 0.00 | 70 | 1018.5 |
| 20260507002248 | 60 | 103 | 0.0 | 2.6 | 0.00 | 0.00 | 0.00 | 70 | 1018.4 |
| 20260507001745 | 60 | 316 | 1.7 | 4.3 | 0.00 | 0.00 | 0.00 | 69 | 1018.0 |
| 20260507001242 | 60 | 17 | 1.7 | 3.5 | 0.00 | 0.00 | 0.00 | 69 | 1018.0 |
| 20260507000738 | 60 | 217 | 0.0 | 3.5 | 0.00 | 0.00 | 0.00 | 68 | 1018.5 |
| 20260507000234 | 61 | 187 | 3.5 | 4.3 | 0.00 | 0.00 | 0.00 | 66 | 1018.5 |
| 20260506235731 | 60 | 251 | 0.0 | 4.3 | 0.00 | 0.00 | 0.00 | 69 | 1018.2 |
| 20260506235226 | 60 | 284 | 1.7 | 3.5 | 0.00 | 0.00 | 0.00 | 69 | 1018.2 |
| 20260506234724 | 59 | 326 | 1.7 | 6.1 | 0.00 | 0.00 | 0.00 | 68 | 1018.3 |
| 20260506234221 | 60 | 224 | 0.0 | 3.5 | 0.00 | 0.00 | 0.00 | 70 | 1018.1 |
| 20260506233719 | 60 | 257 | 0.9 | 4.3 | 0.00 | 0.00 | 0.00 | 68 | 1018.5 |
| 20260506233215 | 59 | 140 | 2.6 | 7.8 | 0.00 | 0.00 | 0.00 | 70 | 1018.3 |
| 20260506232711 | 59 | 48 | 0.0 | 4.3 | 0.00 | 0.00 | 0.00 | 71 | 1018.3 |
| 20260506232206 | 60 | 345 | 0.0 | 1.7 | 0.00 | 0.00 | 0.00 | 70 | 1018.3 |
| 20260506231704 | 60 | 113 | 0.0 | 1.7 | 0.00 | 0.00 | 0.00 | 70 | 1018.4 |
| 20260506231203 | 60 | 182 | 0.0 | 5.2 | 0.00 | 0.00 | 0.00 | 70 | 1018.5 |
| 20260506230658 | 60 | 119 | 0.0 | 3.5 | 0.00 | 0.00 | 0.00 | 70 | 1018.2 |
| 20260506230155 | 60 | 345 | 0.0 | 2.6 | 0.00 | 0.00 | 0.00 | 70 | 1018.4 |
| 20260506225652 | 60 | 346 | 2.6 | 2.6 | 0.00 | 0.00 | 0.00 | 69 | 1018.3 |
| 20260506225149 | 60 | 102 | 1.7 | 4.3 | 0.00 | 0.00 | 0.00 | 68 | 1018.2 |
| 20260506224645 | 61 | 328 | 0.9 | 2.6 | 0.00 | 0.00 | 0.00 | 68 | 1018.4 |
| 20260506224142 | 62 | 275 | 4.3 | 5.2 | 0.00 | 0.00 | 0.00 | 68 | 1018.2 |
| 20260506223639 | 61 | 350 | 1.7 | 3.5 | 0.00 | 0.00 | 0.00 | 69 | 1018.2 |
| 20260506223134 | 61 | 287 | 0.0 | 8.7 | 0.00 | 0.00 | 0.00 | 69 | 1018.3 |
| 20260506222632 | 61 | 172 | 0.9 | 4.3 | 0.00 | 0.00 | 0.00 | 67 | 1018.3 |
| 20260506222128 | 60 | 298 | 1.7 | 2.6 | 0.00 | 0.00 | 0.00 | 71 | 1018.4 |
| 20260506221626 | 60 | 256 | 0.9 | 3.5 | 0.00 | 0.00 | 0.00 | 70 | 1018.5 |
| 20260506221123 | 60 | 176 | 0.0 | 6.1 | 0.00 | 0.00 | 0.00 | 71 | 1018.5 |
| 20260506220620 | 60 | 201 | 1.7 | 2.6 | 0.00 | 0.00 | 0.00 | 71 | 1018.6 |
| 20260506220115 | 60 | 284 | 0.0 | 2.6 | 0.00 | 0.00 | 0.00 | 70 | 1018.7 |
| 20260506215612 | 61 | 310 | 0.0 | 1.7 | 0.00 | 0.00 | 0.00 | 70 | 1018.6 |
| 20260506215107 | 60 | 141 | 0.9 | 4.3 | 0.00 | 0.00 | 0.00 | 69 | 1018.5 |
| 20260506214605 | 60 | 315 | 0.9 | 3.5 | 0.00 | 0.00 | 0.00 | 70 | 1018.6 |
| 20260506214102 | 60 | 211 | 1.7 | 4.3 | 0.00 | 0.00 | 0.00 | 70 | 1018.6 |
| 20260506213600 | 60 | 276 | 0.0 | 2.6 | 0.00 | 0.00 | 0.00 | 70 | 1018.4 |
| 20260506213057 | 60 | 269 | 0.0 | 5.2 | 0.00 | 0.00 | 0.00 | 70 | 1018.4 |
| 20260506212554 | 61 | 143 | 0.0 | 4.3 | 0.00 | 0.00 | 0.00 | 69 | 1018.5 |
| 20260506212048 | 60 | 298 | 0.9 | 6.1 | 0.00 | 0.00 | 0.00 | 72 | 1018.7 |
| 20260506211545 | 60 | 138 | 1.7 | 4.3 | 0.00 | 0.00 | 0.00 | 71 | 1018.5 |
| 20260506211042 | 60 | 287 | 0.0 | 5.2 | 0.00 | 0.00 | 0.00 | 73 | 1018.5 |
| 20260506210538 | 60 | 184 | 1.7 | 4.3 | 0.00 | 0.00 | 0.00 | 72 | 1018.6 |
| 20260506210035 | 60 | 229 | 0.0 | 7.8 | 0.00 | 0.00 | 0.00 | 72 | 1018.5 |
| 20260506205532 | 59 | 172 | 0.9 | 6.1 | 0.00 | 0.00 | 0.00 | 73 | 1018.5 |
| 20260506205027 | 59 | 78 | 0.9 | 3.5 | 0.00 | 0.00 | 0.00 | 75 | 1018.6 |
| 20260506204525 | 58 | 322 | 0.0 | 2.6 | 0.00 | 0.00 | 0.00 | 78 | 1018.7 |
| 20260506204022 | 58 | 106 | 0.0 | 3.5 | 0.00 | 0.00 | 0.00 | 79 | 1018.5 |
| 20260506203520 | 58 | 192 | 1.7 | 2.6 | 0.00 | 0.00 | 0.00 | 79 | 1018.7 |
| 20260506203016 | 58 | 65 | 0.9 | 1.7 | 0.00 | 0.00 | 0.00 | 78 | 1018.5 |
| 20260506202514 | 58 | 309 | 0.0 | 2.6 | 0.00 | 0.00 | 0.00 | 78 | 1018.5 |
| 20260506202010 | 58 | 184 | 1.7 | 3.5 | 0.00 | 0.00 | 0.00 | 79 | 1018.6 |
| 20260506201508 | 58 | 191 | 1.7 | 4.3 | 0.00 | 0.00 | 0.00 | 79 | 1018.4 |
| 20260506201004 | 57 | 57 | 0.9 | 1.7 | 0.00 | 0.00 | 0.00 | 81 | 1018.6 |
| 20260506200501 | 57 | 356 | 0.9 | 2.6 | 0.00 | 0.00 | 0.00 | 82 | 1018.6 |
| 20260506195956 | 57 | 308 | 0.9 | 4.3 | 0.00 | 0.00 | 0.00 | 81 | 1018.4 |
| 20260506195454 | 57 | 295 | 0.9 | 2.6 | 0.00 | 0.00 | 0.00 | 81 | 1018.7 |
| 20260506194945 | 57 | 142 | 0.0 | 4.3 | 0.00 | 0.00 | 0.00 | 82 | 1018.7 |
| 20260506194442 | 57 | 125 | 1.7 | 5.2 | 0.00 | 0.00 | 0.00 | 81 | 1018.6 |
| 20260506193939 | 58 | 286 | 1.7 | 3.5 | 0.00 | 0.00 | 0.00 | 80 | 1018.3 |
| 20260506193436 | 58 | 160 | 3.5 | 4.3 | 0.00 | 0.00 | 0.00 | 79 | 1018.2 |
| 20260506192932 | 58 | 216 | 0.9 | 4.3 | 0.00 | 0.00 | 0.00 | 80 | 1018.4 |
| 20260506192429 | 58 | 184 | 2.6 | 7.0 | 0.00 | 0.00 | 0.00 | 80 | 1018.3 |
| 20260506191926 | 58 | 227 | 0.0 | 5.2 | 0.00 | 0.00 | 0.00 | 80 | 1018.4 |
| 20260506191422 | 57 | 198 | 0.0 | 7.8 | 0.00 | 0.00 | 0.00 | 80 | 1018.3 |
| 20260506190919 | 58 | 143 | 3.5 | 4.3 | 0.00 | 0.00 | 0.00 | 80 | 1018.2 |
| 20260506190416 | 58 | 130 | 1.7 | 2.6 | 0.00 | 0.00 | 0.00 | 81 | 1018.2 |
| 20260506185913 | 57 | 302 | 0.0 | 2.6 | 0.00 | 0.00 | 0.00 | 82 | 1018.4 |
| 20260506185410 | 57 | 141 | 0.9 | 2.6 | 0.00 | 0.00 | 0.00 | 84 | 1018.1 |
| 20260506184908 | 57 | 25 | 0.0 | 2.6 | 0.00 | 0.00 | 0.00 | 83 | 1018.0 |
| 20260506184404 | 57 | 309 | 0.0 | 1.7 | 0.00 | 0.00 | 0.00 | 83 | 1018.3 |
| 20260506183902 | 58 | 81 | 0.0 | 1.7 | 0.00 | 0.00 | 0.00 | 83 | 1018.3 |
| 20260506183356 | 57 | 151 | 0.0 | 4.3 | 0.00 | 0.00 | 0.00 | 83 | 1018.0 |
| 20260506182854 | 57 | 215 | 0.0 | 2.6 | 0.00 | 0.00 | 0.00 | 84 | 1018.2 |
| 20260506182351 | 57 | 349 | 0.0 | 4.3 | 0.00 | 0.00 | 0.00 | 85 | 1018.2 |
| 20260506181848 | 57 | 96 | 0.0 | 6.1 | 0.00 | 0.00 | 0.00 | 83 | 1017.9 |
| 20260506181346 | 57 | 148 | 2.6 | 6.1 | 0.00 | 0.00 | 0.00 | 83 | 1017.9 |
| 20260506180843 | 57 | 190 | 1.7 | 8.7 | 0.00 | 0.00 | 0.00 | 83 | 1018.0 |
| 20260506180339 | 57 | 186 | 0.0 | 1.7 | 0.00 | 0.00 | 0.00 | 85 | 1018.2 |
| 20260506175836 | 57 | 97 | 0.9 | 3.5 | 0.00 | 0.00 | 0.00 | 85 | 1017.9 |
| 20260506175332 | 57 | 96 | 0.0 | 1.7 | 0.00 | 0.00 | 0.00 | 85 | 1018.0 |
| 20260506174830 | 57 | 353 | 0.0 | 1.7 | 0.00 | 0.00 | 0.00 | 85 | 1018.2 |
| 20260506174327 | 57 | 102 | 0.0 | 2.6 | 0.00 | 0.00 | 0.00 | 86 | 1017.9 |
| 20260506173824 | 56 | 158 | 0.0 | 5.2 | 0.00 | 0.00 | 0.00 | 86 | 1017.8 |
| 20260506173321 | 57 | 320 | 0.0 | 1.7 | 0.00 | 0.00 | 0.00 | 86 | 1017.7 |
| 20260506172818 | 56 | 10 | 0.0 | 1.7 | 0.00 | 0.00 | 0.00 | 87 | 1017.7 |
| 20260506172315 | 56 | 140 | 0.0 | 2.6 | 0.00 | 0.00 | 0.00 | 87 | 1017.8 |
| 20260506171812 | 56 | 136 | 0.0 | 4.3 | 0.00 | 0.00 | 0.00 | 86 | 1017.9 |
| 20260506171309 | 56 | 141 | 0.9 | 4.3 | 0.00 | 0.00 | 0.00 | 86 | 1017.9 |
| 20260506170807 | 56 | 164 | 0.9 | 3.5 | 0.00 | 0.00 | 0.00 | 85 | 1017.8 |
| 20260506170303 | 56 | 207 | 0.9 | 3.5 | 0.00 | 0.00 | 0.00 | 84 | 1018.1 |
| 20260506165802 | 56 | 148 | 2.6 | 5.2 | 0.00 | 0.00 | 0.00 | 83 | 1017.9 |
| 20260506165259 | 57 | 150 | 0.9 | 1.7 | 0.00 | 0.00 | 0.00 | 84 | 1017.7 |
| 20260506164755 | 56 | 166 | 0.0 | 2.6 | 0.00 | 0.00 | 0.00 | 85 | 1017.7 |
| 20260506164252 | 56 | 134 | 2.6 | 5.2 | 0.00 | 0.00 | 0.00 | 85 | 1018.1 |
| 20260506163749 | 56 | 230 | 0.0 | 5.2 | 0.00 | 0.00 | 0.00 | 85 | 1018.0 |
| 20260506163244 | 56 | 156 | 0.0 | 3.5 | 0.00 | 0.00 | 0.00 | 84 | 1018.0 |
| 20260506162740 | 56 | 109 | 0.9 | 2.6 | 0.00 | 0.00 | 0.00 | 85 | 1018.2 |
| 20260506162238 | 56 | 219 | 0.0 | 2.6 | 0.00 | 0.00 | 0.00 | 86 | 1017.8 |
| 20260506161735 | 56 | 293 | 0.0 | 3.5 | 0.00 | 0.00 | 0.00 | 87 | 1017.8 |
| 20260506161232 | 55 | 183 | 0.0 | 2.6 | 0.00 | 0.00 | 0.00 | 88 | 1017.8 |
| 20260506160724 | 55 | 6 | 0.0 | 2.6 | 0.00 | 0.00 | 0.00 | 89 | 1017.7 |
| 20260506160220 | 55 | 125 | 0.9 | 4.3 | 0.00 | 0.00 | 0.00 | 89 | 1017.9 |
| 20260506155718 | 55 | 155 | 1.7 | 2.6 | 0.00 | 0.00 | 0.00 | 89 | 1017.5 |
| 20260506155215 | 55 | 142 | 0.9 | 4.3 | 0.00 | 0.00 | 0.00 | 89 | 1017.6 |
| 20260506153317 | 55 | 126 | 0.0 | 4.3 | 0.00 | 0.00 | 0.00 | 89 | 1017.3 |
| 20260506152814 | 55 | 144 | 0.9 | 4.3 | 0.00 | 0.00 | 0.00 | 90 | 1017.4 |
| 20260506152311 | 55 | 153 | 0.0 | 4.3 | 0.00 | 0.00 | 0.00 | 90 | 1017.3 |
| 20260506151810 | 55 | 75 | 0.0 | 2.6 | 0.00 | 0.00 | 0.00 | 90 | 1017.4 |
| 20260506151306 | 55 | 164 | 1.7 | 2.6 | 0.00 | 0.00 | 0.00 | 90 | 1017.3 |
| 20260506150803 | 55 | 130 | 0.0 | 2.6 | 0.00 | 0.00 | 0.00 | 90 | 1017.6 |
| 20260506150304 | 55 | 17 | 0.0 | 0.9 | 0.00 | 0.00 | 0.00 | 90 | 1017.5 |
| 20260506145757 | 55 | 28 | 0.0 | 1.7 | 0.00 | 0.00 | 0.00 | 90 | 1017.7 |
| 20260506145253 | 55 | 48 | 0.0 | 1.7 | 0.00 | 0.00 | 0.00 | 89 | 1017.8 |
| 20260506144751 | 54 | 154 | 0.0 | 2.6 | 0.00 | 0.00 | 0.00 | 89 | 1017.4 |
| 20260506144248 | 54 | 147 | 0.0 | 3.5 | 0.00 | 0.00 | 0.00 | 89 | 1017.3 |
| 20260506143745 | 54 | 202 | 0.0 | 4.3 | 0.00 | 0.00 | 0.00 | 90 | 1017.3 |
| 20260506143243 | 54 | 151 | 0.0 | 2.6 | 0.00 | 0.00 | 0.00 | 90 | 1017.3 |
| 20260506142741 | 54 | 134 | 0.0 | 2.6 | 0.00 | 0.00 | 0.00 | 90 | 1017.5 |
| 20260506142239 | 54 | 28 | 0.0 | 1.7 | 0.00 | 0.00 | 0.00 | 91 | 1017.5 |
| 20260506141737 | 54 | 150 | 2.6 | 5.2 | 0.00 | 0.00 | 0.00 | 91 | 1017.1 |
| 20260506141235 | 54 | 119 | 0.9 | 2.6 | 0.00 | 0.00 | 0.00 | 92 | 1017.2 |
| 20260506140732 | 54 | 49 | 0.9 | 2.6 | 0.00 | 0.00 | 0.00 | 92 | 1017.2 |
| 20260506140229 | 53 | 58 | 1.7 | 2.6 | 0.00 | 0.00 | 0.00 | 93 | 1017.1 |
| 20260506135725 | 53 | 97 | 0.0 | 1.7 | 0.00 | 0.00 | 0.00 | 93 | 1017.0 |
| 20260506135222 | 53 | 27 | 1.7 | 1.7 | 0.00 | 0.00 | 0.00 | 93 | 1017.1 |
| 20260506134719 | 53 | 70 | 0.9 | 2.6 | 0.00 | 0.00 | 0.00 | 93 | 1017.1 |
| 20260506134215 | 53 | 46 | 1.7 | 2.6 | 0.00 | 0.00 | 0.00 | 93 | 1017.1 |
| 20260506133712 | 53 | 114 | 0.0 | 1.7 | 0.00 | 0.00 | 0.00 | 93 | 1017.3 |
| 20260506133209 | 53 | 47 | 0.9 | 1.7 | 0.00 | 0.00 | 0.00 | 93 | 1017.2 |
| 20260506132706 | 53 | 315 | 0.0 | 1.7 | 0.00 | 0.00 | 0.00 | 93 | 1017.2 |
| 20260506132203 | 53 | 19 | 0.0 | 1.7 | 0.00 | 0.00 | 0.00 | 93 | 1017.2 |
| 20260506131701 | 53 | 79 | 1.7 | 2.6 | 0.00 | 0.00 | 0.00 | 93 | 1017.2 |
| 20260506131156 | 53 | 100 | 0.9 | 1.7 | 0.00 | 0.00 | 0.00 | 93 | 1017.0 |
| 20260506130653 | 53 | 10 | 0.9 | 1.7 | 0.00 | 0.00 | 0.00 | 93 | 1016.9 |
| 20260506130151 | 53 | 36 | 0.0 | 1.7 | 0.00 | 0.00 | 0.00 | 93 | 1016.8 |
| 20260506125649 | 53 | 9 | 0.0 | 1.7 | 0.00 | 0.00 | 0.00 | 93 | 1016.9 |
| 20260506125146 | 52 | 104 | 0.9 | 0.9 | 0.00 | 0.00 | 0.00 | 93 | 1016.7 |
| 20260506124644 | 53 | 103 | 0.0 | 1.7 | 0.00 | 0.00 | 0.00 | 93 | 1016.8 |
| 20260506124142 | 52 | 89 | 0.0 | 1.7 | 0.00 | 0.00 | 0.00 | 94 | 1016.6 |
| 20260506123639 | 52 | 50 | 0.9 | 1.7 | 0.00 | 0.00 | 0.00 | 94 | 1016.5 |
| 20260506123138 | 52 | 68 | 0.9 | 1.7 | 0.00 | 0.00 | 0.00 | 94 | 1016.8 |
| 20260506122634 | 52 | 73 | 0.0 | 2.6 | 0.00 | 0.00 | 0.00 | 94 | 1016.9 |
| 20260506122132 | 52 | 92 | 0.9 | 1.7 | 0.00 | 0.00 | 0.00 | 94 | 1016.8 |
| 20260506121629 | 52 | 55 | 1.7 | 1.7 | 0.00 | 0.00 | 0.00 | 94 | 1016.7 |
| 20260506121125 | 52 | 51 | 0.9 | 1.7 | 0.00 | 0.00 | 0.00 | 94 | 1016.9 |
| 20260506120624 | 51 | 345 | 0.0 | 0.9 | 0.00 | 0.00 | 0.00 | 94 | 1016.7 |
| 20260506120121 | 51 | 110 | 0.0 | 1.7 | 0.00 | 0.00 | 0.00 | 94 | 1016.8 |
| 20260506115620 | 51 | 78 | 0.9 | 1.7 | 0.00 | 0.00 | 0.00 | 94 | 1016.6 |
| 20260506115117 | 51 | 66 | 0.0 | 1.7 | 0.00 | 0.00 | 0.00 | 94 | 1016.5 |
| 20260506114614 | 51 | 91 | 0.9 | 1.7 | 0.00 | 0.00 | 0.00 | 94 | 1016.5 |
| 20260506114112 | 51 | 46 | 0.0 | 1.7 | 0.00 | 0.00 | 0.00 | 94 | 1016.8 |
| 20260506113610 | 51 | 65 | 0.0 | 1.7 | 0.00 | 0.00 | 0.00 | 94 | 1016.5 |
| 20260506113107 | 51 | 39 | 0.9 | 1.7 | 0.00 | 0.00 | 0.00 | 94 | 1016.5 |
| 20260506112603 | 51 | 45 | 0.0 | 1.7 | 0.00 | 0.00 | 0.00 | 94 | 1016.4 |
| 20260506112101 | 51 | 357 | 0.0 | 0.9 | 0.00 | 0.00 | 0.00 | 94 | 1016.3 |
| 20260506111558 | 51 | 30 | 0.0 | 0.9 | 0.00 | 0.00 | 0.00 | 95 | 1016.4 |
| 20260506111055 | 51 | 15 | 0.9 | 0.9 | 0.00 | 0.00 | 0.00 | 95 | 1016.1 |
| 20260506110553 | 51 | 37 | 0.0 | 0.9 | 0.00 | 0.00 | 0.00 | 95 | 1016.1 |
| 20260506110050 | 51 | 89 | 0.0 | 0.9 | 0.00 | 0.00 | 0.00 | 95 | 1015.9 |
| 20260506105546 | 51 | 122 | 0.0 | 0.9 | 0.00 | 0.00 | 0.00 | 95 | 1015.8 |
| 20260506105044 | 51 | 4 | 0.0 | 1.7 | 0.00 | 0.00 | 0.00 | 95 | 1016.0 |
| 20260506104541 | 51 | 337 | 0.9 | 1.7 | 0.00 | 0.00 | 0.00 | 95 | 1015.9 |
| 20260506104039 | 51 | 138 | 0.0 | 0.9 | 0.00 | 0.00 | 0.00 | 95 | 1015.7 |
| 20260506103536 | 51 | 44 | 0.0 | 0.9 | 0.00 | 0.00 | 0.00 | 95 | 1015.7 |
| 20260506103032 | 51 | 45 | 0.0 | 1.7 | 0.00 | 0.00 | 0.00 | 95 | 1015.8 |
| 20260506102531 | 51 | 38 | 0.0 | 1.7 | 0.00 | 0.00 | 0.00 | 95 | 1015.7 |
| 20260506102028 | 51 | 44 | 0.0 | 1.7 | 0.00 | 0.00 | 0.00 | 95 | 1015.7 |
| 20260506101525 | 51 | 76 | 0.9 | 1.7 | 0.00 | 0.00 | 0.00 | 95 | 1015.8 |
| 20260506101022 | 51 | 72 | 0.9 | 1.7 | 0.00 | 0.00 | 0.00 | 95 | 1015.4 |
| 20260506100520 | 51 | 70 | 1.7 | 1.7 | 0.00 | 0.00 | 0.00 | 95 | 1015.5 |
| 20260506100018 | 50 | 85 | 0.9 | 2.6 | 0.00 | 0.00 | 0.00 | 95 | 1015.7 |
| 20260506095517 | 50 | 89 | 0.0 | 0.9 | 0.00 | 0.00 | 0.00 | 95 | 1015.7 |
| 20260506095012 | 50 | 79 | 1.7 | 1.7 | 0.00 | 0.00 | 0.00 | 95 | 1015.6 |
| 20260506094510 | 50 | 61 | 0.0 | 1.7 | 0.00 | 0.00 | 0.00 | 95 | 1015.5 |
| 20260506094008 | 50 | 79 | 0.9 | 2.6 | 0.00 | 0.00 | 0.00 | 95 | 1015.3 |
| 20260506093506 | 50 | 78 | 0.0 | 1.7 | 0.00 | 0.00 | 0.00 | 95 | 1015.4 |
| 20260506093003 | 50 | 103 | 0.9 | 1.7 | 0.00 | 0.00 | 0.00 | 95 | 1015.6 |
| 20260506092501 | 50 | 108 | 1.7 | 1.7 | 0.00 | 0.00 | 0.00 | 95 | 1015.5 |
| 20260506091957 | 50 | 73 | 0.9 | 2.6 | 0.00 | 0.00 | 0.00 | 95 | 1015.4 |
| 20260506091456 | 50 | 89 | 1.7 | 1.7 | 0.00 | 0.00 | 0.00 | 94 | 1015.5 |
| 20260506090952 | 50 | 65 | 1.7 | 1.7 | 0.00 | 0.00 | 0.00 | 94 | 1015.3 |
| 20260506090451 | 50 | 51 | 1.7 | 2.6 | 0.00 | 0.00 | 0.00 | 94 | 1015.4 |
| 20260506085946 | 51 | 103 | 0.0 | 1.7 | 0.00 | 0.00 | 0.00 | 94 | 1015.4 |
| 20260506085443 | 50 | 37 | 0.9 | 1.7 | 0.00 | 0.00 | 0.00 | 94 | 1015.4 |
| 20260506084940 | 50 | 113 | 0.0 | 1.7 | 0.00 | 0.00 | 0.00 | 94 | 1015.3 |
| 20260506084437 | 50 | 62 | 0.0 | 1.7 | 0.00 | 0.00 | 0.00 | 94 | 1015.0 |
| 20260506083933 | 51 | 57 | 0.0 | 1.7 | 0.00 | 0.00 | 0.00 | 94 | 1015.0 |
| 20260506083430 | 51 | 98 | 0.9 | 1.7 | 0.00 | 0.00 | 0.00 | 94 | 1015.0 |
| 20260506082927 | 51 | 122 | 0.9 | 1.7 | 0.00 | 0.00 | 0.00 | 94 | 1015.0 |
| 20260506082425 | 51 | 67 | 0.9 | 1.7 | 0.00 | 0.00 | 0.00 | 93 | 1015.0 |
| 20260506081920 | 51 | 80 | 0.0 | 2.6 | 0.00 | 0.00 | 0.00 | 93 | 1015.1 |
| 20260506081419 | 51 | 16 | 0.0 | 0.9 | 0.00 | 0.00 | 0.00 | 93 | 1014.9 |
| 20260506080915 | 51 | 76 | 0.9 | 1.7 | 0.00 | 0.00 | 0.00 | 93 | 1014.9 |
| 20260506080412 | 52 | 102 | 0.0 | 1.7 | 0.00 | 0.00 | 0.00 | 93 | 1014.8 |
| 20260506073356 | 52 | 74 | 1.7 | 1.7 | 0.00 | 0.00 | 0.00 | 92 | 1014.4 |
| 20260506072853 | 52 | 78 | 0.9 | 2.6 | 0.00 | 0.00 | 0.00 | 91 | 1014.5 |
| 20260506072351 | 53 | 68 | 1.7 | 2.6 | 0.00 | 0.00 | 0.00 | 91 | 1014.6 |
| 20260506071848 | 53 | 70 | 0.9 | 1.7 | 0.00 | 0.00 | 0.00 | 91 | 1014.6 |
| 20260506071346 | 53 | 68 | 0.9 | 1.7 | 0.00 | 0.00 | 0.00 | 91 | 1014.5 |
| 20260506070843 | 53 | 78 | 1.7 | 1.7 | 0.00 | 0.00 | 0.00 | 90 | 1014.6 |
| 20260506070340 | 53 | 85 | 1.7 | 1.7 | 0.00 | 0.00 | 0.00 | 90 | 1014.4 |
| 20260506062317 | 53 | 51 | 0.0 | 1.7 | 0.00 | 0.00 | 0.00 | 90 | 1014.6 |
| 20260506061813 | 54 | 354 | 0.0 | 1.7 | 0.00 | 0.00 | 0.00 | 90 | 1014.3 |
| 20260506061310 | 54 | 96 | 0.9 | 1.7 | 0.00 | 0.00 | 0.00 | 89 | 1014.3 |
| 20260506060809 | 54 | 100 | 2.6 | 2.6 | 0.00 | 0.00 | 0.00 | 89 | 1014.3 |
| 20260506060307 | 54 | 72 | 1.7 | 2.6 | 0.00 | 0.00 | 0.00 | 89 | 1014.1 |
| 20260506051237 | 56 | 96 | 1.7 | 2.6 | 0.00 | 0.00 | 0.00 | 87 | 1013.7 |
| 20260506050735 | 56 | 88 | 1.7 | 2.6 | 0.00 | 0.00 | 0.00 | 86 | 1013.7 |
| 20260506050232 | 56 | 85 | 1.7 | 2.6 | 0.00 | 0.00 | 0.00 | 86 | 1013.4 |
| 20260506044723 | 57 | 78 | 1.7 | 3.5 | 0.00 | 0.00 | 0.00 | 85 | 1013.6 |
| 20260506044221 | 57 | 81 | 1.7 | 2.6 | 0.00 | 0.00 | 0.00 | 84 | 1013.7 |
| 20260506043718 | 57 | 83 | 1.7 | 2.6 | 0.00 | 0.00 | 0.00 | 84 | 1013.5 |
| 20260506043216 | 57 | 82 | 1.7 | 2.6 | 0.00 | 0.00 | 0.00 | 83 | 1013.4 |
| 20260506042714 | 58 | 64 | 1.7 | 1.7 | 0.00 | 0.00 | 0.00 | 83 | 1013.4 |
| 20260506042212 | 58 | 88 | 1.7 | 1.7 | 0.00 | 0.00 | 0.00 | 82 | 1013.3 |
| 20260506041710 | 58 | 106 | 0.9 | 2.6 | 0.00 | 0.00 | 0.00 | 82 | 1013.4 |
| 20260506041207 | 59 | 41 | 0.0 | 1.7 | 0.00 | 0.00 | 0.00 | 80 | 1013.0 |
| 20260506040704 | 59 | 53 | 0.0 | 1.7 | 0.00 | 0.00 | 0.00 | 79 | 1013.2 |
| 20260506040201 | 59 | 125 | 0.9 | 1.7 | 0.00 | 0.00 | 0.00 | 79 | 1013.0 |
| 20260506035658 | 60 | 128 | 0.0 | 1.7 | 0.00 | 0.00 | 0.00 | 78 | 1013.3 |
| 20260506035155 | 60 | 91 | 0.0 | 1.7 | 0.00 | 0.00 | 0.00 | 78 | 1013.0 |
| 20260506034651 | 60 | 116 | 0.9 | 1.7 | 0.00 | 0.00 | 0.00 | 78 | 1013.2 |
| 20260506034149 | 60 | 118 | 1.7 | 2.6 | 0.00 | 0.00 | 0.00 | 77 | 1013.1 |
| 20260506033646 | 60 | 117 | 0.0 | 1.7 | 0.00 | 0.00 | 0.00 | 76 | 1013.2 |
| 20260506033142 | 61 | 145 | 0.9 | 2.6 | 0.00 | 0.00 | 0.00 | 75 | 1012.9 |
| 20260506032640 | 61 | 148 | 0.9 | 5.2 | 0.00 | 0.00 | 0.00 | 74 | 1012.9 |
| 20260506032137 | 62 | 145 | 0.9 | 2.6 | 0.00 | 0.00 | 0.00 | 74 | 1013.0 |
| 20260506031633 | 62 | 329 | 0.0 | 1.7 | 0.00 | 0.00 | 0.00 | 72 | 1012.9 |
| 20260506031130 | 63 | 157 | 0.0 | 2.6 | 0.00 | 0.00 | 0.00 | 72 | 1012.8 |
| 20260506030629 | 63 | 139 | 1.7 | 2.6 | 0.00 | 0.00 | 0.00 | 71 | 1012.7 |
| 20260506030126 | 64 | 142 | 0.9 | 2.6 | 0.00 | 0.00 | 0.00 | 69 | 1012.7 |
| 20260506025623 | 65 | 326 | 0.0 | 1.7 | 0.00 | 0.00 | 0.00 | 68 | 1012.7 |
| 20260506025119 | 65 | 60 | 0.0 | 3.5 | 0.00 | 0.00 | 0.00 | 68 | 1012.7 |
| 20260506024617 | 65 | 322 | 0.0 | 2.6 | 0.00 | 0.00 | 0.00 | 68 | 1012.8 |
| 20260506024112 | 65 | 161 | 0.0 | 2.6 | 0.00 | 0.00 | 0.00 | 66 | 1012.6 |
| 20260506023609 | 66 | 32 | 0.0 | 1.7 | 0.00 | 0.00 | 0.00 | 66 | 1012.7 |
| 20260506023106 | 66 | 29 | 1.7 | 2.6 | 0.00 | 0.00 | 0.00 | 67 | 1012.7 |
| 20260506022603 | 66 | 58 | 0.0 | 4.3 | 0.00 | 0.00 | 0.00 | 66 | 1012.6 |
| 20260506022101 | 66 | 32 | 0.9 | 3.5 | 0.00 | 0.00 | 0.00 | 65 | 1012.6 |
| 20260506021558 | 66 | 336 | 0.0 | 0.9 | 0.00 | 0.00 | 0.00 | 66 | 1012.8 |
| 20260506021055 | 66 | 142 | 1.7 | 2.6 | 0.00 | 0.00 | 0.00 | 67 | 1012.8 |
| 20260506020553 | 66 | 31 | 1.7 | 2.6 | 0.00 | 0.00 | 0.00 | 64 | 1012.8 |
| 20260506020050 | 66 | 44 | 0.0 | 1.7 | 0.00 | 0.00 | 0.00 | 65 | 1012.7 |
| 20260506015548 | 66 | 10 | 0.9 | 1.7 | 0.00 | 0.00 | 0.00 | 66 | 1012.7 |
| 20260506015044 | 66 | 52 | 0.9 | 4.3 | 0.00 | 0.00 | 0.00 | 66 | 1012.7 |
| 20260506014542 | 66 | 8 | 0.9 | 3.5 | 0.00 | 0.00 | 0.00 | 64 | 1012.5 |
| 20260506014037 | 66 | 148 | 2.6 | 2.6 | 0.00 | 0.00 | 0.00 | 64 | 1012.8 |
| 20260506013536 | 66 | 97 | 0.0 | 3.5 | 0.00 | 0.00 | 0.00 | 65 | 1012.5 |
| 20260506013032 | 67 | 141 | 0.0 | 2.6 | 0.00 | 0.00 | 0.00 | 64 | 1012.6 |
| 20260506012528 | 67 | 218 | 1.7 | 3.5 | 0.00 | 0.00 | 0.00 | 63 | 1012.6 |
| 20260506012025 | 68 | 91 | 0.0 | 5.2 | 0.00 | 0.00 | 0.00 | 63 | 1012.5 |
| 20260506011523 | 67 | 84 | 0.0 | 1.7 | 0.00 | 0.00 | 0.00 | 64 | 1012.8 |
| 20260506011020 | 67 | 242 | 0.9 | 4.3 | 0.00 | 0.00 | 0.00 | 63 | 1012.6 |
| 20260506010519 | 67 | 359 | 0.0 | 4.3 | 0.00 | 0.00 | 0.00 | 64 | 1012.9 |
| 20260506010015 | 68 | 261 | 0.0 | 1.7 | 0.00 | 0.00 | 0.00 | 63 | 1012.7 |
| 20260506005512 | 67 | 152 | 1.7 | 4.3 | 0.00 | 0.00 | 0.00 | 64 | 1012.7 |
| 20260506005008 | 67 | 47 | 0.0 | 1.7 | 0.00 | 0.00 | 0.00 | 63 | 1012.7 |
| 20260506004505 | 67 | 165 | 2.6 | 4.3 | 0.00 | 0.00 | 0.00 | 64 | 1012.8 |
| 20260506004001 | 68 | 173 | 1.7 | 3.5 | 0.00 | 0.00 | 0.00 | 63 | 1012.9 |